User: anonymous   Login
Location: Trondheim
(63.4170°N, 10.4170°E)
Time: 21:14:59
(UTC+02:00)
Language:

Iridium 82 - Orbit

View from above orbital plane
View from above orbital plane
View from above satellite
View from above satellite

Ground track
Ground track

The orbit data is extracted from the following two-line orbital elements,

1 25467U 98051A   17141.79919695 +.00001187 +00000-0 +87536-4 0  9996
2 25467 086.4034 032.5512 0185467 124.6285 237.2587 14.89192898982921
Epoch (UTC): 21 May 2017 19:10:50
Eccentricity: 0.0185467
inclination: 86.4034°
perigee height: 471 km
apogee height: 730 km
right ascension of ascending node: 32.5512°
argument of perigee: 124.6285°
revolutions per day: 14.89192898
mean anomaly at epoch: 237.2587°
orbit number at epoch: 98292

The dashed part of the orbit path shows where the satellite is in the earth's shadow,  

DLR